Regional Weather Roundup
Issued by NWS Boston, MA

Home | Current Version | Previous Version | Text Only | Print | Product List | Glossary On
Versions: 1 2 3 4 5 6 7 8 9 10 11 12 13 14 15 16 17 18 19 20 21 22 23 24 25 26 27 28 29 30 31 32 33 34 35 36 37 38 39 40 41 42 43 44 45 46 47 48 49 50
000
ASUS41 KBOX 261110
RWRBOX

REGIONAL WEATHER ROUNDUP
NATIONAL WEATHER SERVICE TAUNTON MA
700 AM EDT TUE MAY 26 2015

NOTE:  "FAIR" INDICATES FEW OR NO CLOUDS BELOW 12,000 FEET WITH NO
SIGNIFICANT WEATHER AND/OR OBSTRUCTIONS TO VISIBILITY.  THE FOLLOWING
OBSERVATION LOCATIONS DO NOT REPORT PRESENT WEATHER...PROVINCETOWN...
SMITHFIELD...BLOCK ISLAND...KEENE...AND OXFORD.

MAZALL-261200-
EASTERN MASSACHUSETTS

CITY           SKY/WX    TMP DP  RH WIND       PRES   REMARKS
BOSTON         PTSUNNY   66  55  67 SW17G23   30.14R
BEVERLY        PTSUNNY   67  54  63 SW14      30.12R
LAWRENCE       PTSUNNY   67  56  67 S6        30.14R
BEDFORD        PTSUNNY   66  54  65 SW12G20   30.13R
BLUE HILL        N/A     62  55  77 S16G25    30.15R
NORWOOD        MOSUNNY   65  56  72 S10       30.16R
MARSHFIELD     PTSUNNY   64  57  77 SW13G25   30.17R
PLYMOUTH       MOSUNNY   62  56  80 SW15G22   30.20R
TAUNTON        MOSUNNY   64  56  75 S8G18     30.19R
NEW BEDFORD    MOSUNNY   63  57  81 SW21G29   30.20R
$$

MAZALL-261200-
CAPE COD AND THE ISLANDS

CITY           SKY/WX    TMP DP  RH WIND       PRES   REMARKS
FALMOUTH       PTSUNNY   63  57  82 SW18G28   30.22R
HYANNIS        PTSUNNY   63  57  81 SW20G32   30.20S
CHATHAM        PTSUNNY   61  58  90 SW14G25   30.23S
PROVINCETOWN   PTSUNNY   61  54  77 S17       30.20R
NANTUCKET      MOSUNNY   60  56  86 S18G25    30.25S
MARTHAS VNYRD  PTSUNNY   61  56  83 SW13G22   30.24R
$$

MAZALL-261200-
CENTRAL AND WESTERN MASSACHUSETTS

CITY           SKY/WX    TMP DP  RH WIND       PRES   REMARKS
WORCESTER      PTSUNNY   64  54  69 SW15      30.17R
FITCHBURG      PTSUNNY   71  58  63 W7        30.14R
ORANGE         MOSUNNY   64  56  75 S10       30.16R
SPRINGFIELD    PTSUNNY   65  54  67 S14       30.15R
WESTFIELD      PTSUNNY   65  56  72 S8        30.16R
NORTH ADAMS    MOSUNNY   66  59  78 VRB3      30.13R
PITTSFIELD     MOSUNNY   67  58  72 W8        30.15R
$$

RIZALL-261200-
RHODE ISLAND

CITY           SKY/WX    TMP DP  RH WIND       PRES   REMARKS
PROVIDENCE     PTSUNNY   64  56  75 S10       30.20R
NEWPORT        MOSUNNY   58  55  90 SW10G17   30.22R
BLOCK ISLAND   SUNNY     57  54  88 SW20G28   30.24S
SMITHFIELD     CLOUDY    64  52  63 SW9       30.19R
WESTERLY       MOSUNNY   60  56  86 SW7       30.23S
$$

CTZALL-261200-
CONNECTICUT

CITY           SKY/WX    TMP DP  RH WIND       PRES   REMARKS
BRADLEY INTL   PTSUNNY   65  53  65 S13       30.17R
HARTFORD       SUNNY     64  53  67 S9        30.19R
BRIDGEPORT     SUNNY     61  56  83 SW6       30.22R
DANBURY        SUNNY     65  53  65 SW7       30.22R
GROTON         MOSUNNY   59  55  87 S8        30.22S
NEW HAVEN      MOSUNNY   60  56  86 SW5       30.22R
CHESTER        FAIR      61  57  88 SW10      30.23R
MERIDEN        MOSUNNY   64  55  72 S8        30.21R
WILLIMANTIC    PTSUNNY   64  55  72 S8        30.20R
OXFORD         MOSUNNY   61  52  72 SW5       30.23R
$$

MEZ002-015-021-024-NHZ003-005-008-011-012-014-VTZ005-008-261200-
NORTHERN NEW ENGLAND

CITY           SKY/WX    TMP DP  RH WIND       PRES   REMARKS
PORTLAND ME    CLOUDY    58  55  90 S6        30.07R
BANGOR ME      CLOUDY    56  55  97 S12       30.05R FOG
CONCORD NH     PTSUNNY   66  60  81 SE6       30.10R
MANCHESTER NH  PTSUNNY   68  58  70 S7        30.10R
NASHUA NH      PTSUNNY   69  60  73 SE3       30.13R
PORTSMOUTH NH  PTSUNNY   67  57  70 SW7       30.09R
JAFFREY NH     PTSUNNY   63  56  78 SW7       30.16R
KEENE NH       MOSUNNY   63  57  82 CALM      30.14R
BURLINGTON VT  PTSUNNY   71  58  63 SW7       30.04R
MT. WASHINGTON FOG       48  48 100 W59         N/A  VSB 0
$$

NYZ052-076-261200-
EASTERN NEW YORK

CITY           SKY/WX    TMP DP  RH WIND       PRES   REMARKS
ALBANY         LGT RAIN  72  58  61 SE9       30.11R
NEW YORK CITY  PTSUNNY   68  56  65 SW13      30.21R
$$

ANZALL-261200-
MARINE OBSERVATIONS

STATION/POSITION TIME  TEMP    WIND        PRES    VSBY  WAVE
                       AIR SEA DIR/SP/G                  HT/PER
                 (UTC) (F)     (DEG/KT/KT) (MB)    (MI)  (FT/S)
BOSTON BUOY      1050   59 53  190/ 10/ 10   N/A           2/ 3
BUZZARDS BAY     1100          210/ 20/ 21   N/A
NANTUCKET SOUND  1050   61 58  210/ 21/ 25   N/A           2/ 4
MASS BAY-STELLWA 1004   55 50  180/ 10/ 12   N/A    1 7/8  3/ 5
ISLE OF SHOALS   1100   62     210/ 17/ 17   N/A
S OF BLOCK IS    1008      54                N/A           5/ 6
$$

......................KEY.........................
  SKY/WX - SKY CONDITION/PRESENT WEATHER
  TMP    - TEMPERATURE IN FAHRENHEIT
  DWPT   - DEWPOINT IN FAHRENHEIT
  RH     - RELATIVE HUMIDITY IN PERCENT
  WIND   - DIRECTION AND SPEED IN MPH
  PRES   - MEAN SEA LEVEL PRESSURE IN INCHES OF HG
  WCI    - WIND CHILL INDEX
  VSB    - VISIBILITY IN MILES
  HX     - HEAT INDEX
  TC     - TEMPERATURE IN CELSIUS
  VRB    - VARIABLE WIND DIRECTION
  N/A    - NOT AVAILABLE



USA.gov is the U.S. government's official web portal to all federal, state and local government web resources and services.